| time (UTC) | temp F | wind direction | speed MPH | gust MPH | rain 1hr in | rain 24hr in | rain mn in | humidity % | barometer mb |
| 20260504184536 | 60 | 303 | 7.0 | 15.0 | 0.00 | 0.21 | 0.21 | 84 | 1012.0 |
| 20260504183041 | 59 | 305 | 10.0 | 16.0 | 0.00 | 0.21 | 0.21 | 83 | 1011.9 |
| 20260504181538 | 60 | 293 | 8.0 | 16.0 | 0.00 | 0.21 | 0.21 | 84 | 1012.0 |
| 20260504180039 | 60 | 293 | 8.0 | 14.0 | 0.00 | 0.21 | 0.21 | 83 | 1011.9 |
| 20260504174538 | 60 | 302 | 9.0 | 15.0 | 0.00 | 0.21 | 0.21 | 84 | 1011.8 |
| 20260504173051 | 60 | 302 | 10.0 | 14.0 | 0.00 | 0.21 | 0.21 | 82 | 1011.8 |
| 20260504171542 | 60 | 324 | 8.0 | 13.0 | 0.00 | 0.21 | 0.21 | 80 | 1011.8 |
| 20260504081541 | 55 | 45 | 3.0 | 7.0 | 0.08 | 0.16 | 0.14 | 95 | 1012.3 |
| 20260504044536 | 56 | 23 | 3.0 | 7.0 | 0.00 | 0.03 | 0.00 | 90 | 1011.2 |
| 20260504043035 | 57 | 24 | 6.0 | 10.0 | 0.00 | 0.03 | 0.00 | 90 | 1011.2 |
| 20260504041544 | 57 | 355 | 6.0 | 10.0 | 0.00 | 0.03 | 0.00 | 90 | 1011.3 |
| 20260504040042 | 57 | 19 | 2.0 | 7.0 | 0.00 | 0.03 | 0.00 | 91 | 1011.5 |
| 20260504034545 | 56 | 19 | 4.0 | 7.0 | 0.00 | 0.03 | 0.00 | 91 | 1011.4 |
| 20260504033036 | 56 | 297 | 0.0 | 3.0 | 0.00 | 0.03 | 0.00 | 92 | 1011.8 |
| 20260504031536 | 55 | 15 | 0.0 | 3.0 | 0.00 | 0.03 | 0.00 | 91 | 1011.6 |
| 20260504030037 | 56 | 0 | 0.0 | 4.0 | 0.00 | 0.03 | 0.00 | 91 | 1011.6 |
| 20260504024542 | 56 | 26 | 0.0 | 3.0 | 0.00 | 0.03 | 0.00 | 91 | 1011.6 |
| 20260504023039 | 56 | 66 | 2.0 | 5.0 | 0.00 | 0.03 | 0.00 | 92 | 1011.6 |
| 20260504021540 | 56 | 68 | 0.0 | 3.0 | 0.00 | 0.03 | 0.00 | 92 | 1011.7 |
| 20260504020041 | 56 | 44 | 1.0 | 4.0 | 0.00 | 0.03 | 0.00 | 93 | 1011.6 |
| 20260504014538 | 56 | 0 | 0.0 | 4.0 | 0.00 | 0.03 | 0.00 | 93 | 1011.8 |
| 20260504013055 | 55 | 35 | 0.0 | 2.0 | 0.00 | 0.03 | 0.00 | 93 | 1011.9 |
| 20260504011542 | 55 | 0 | 0.0 | 1.0 | 0.00 | 0.03 | 0.00 | 93 | 1012.0 |
| 20260504010042 | 56 | 42 | 0.0 | 1.0 | 0.00 | 0.03 | 0.00 | 92 | 1012.0 |
| 20260504004538 | 56 | 0 | 0.0 | 2.0 | 0.00 | 0.03 | 0.00 | 92 | 1012.1 |
| 20260504003035 | 56 | 63 | 1.0 | 2.0 | 0.00 | 0.03 | 0.00 | 92 | 1012.1 |
| 20260504001538 | 56 | 19 | 1.0 | 3.0 | 0.00 | 0.03 | 0.00 | 92 | 1012.1 |
| 20260504000035 | 57 | 62 | 1.0 | 4.0 | 0.00 | 0.03 | 0.00 | 92 | 1012.3 |
| 20260503234540 | 57 | 47 | 1.0 | 5.0 | 0.00 | 0.05 | 0.00 | 91 | 1012.3 |
| 20260503233037 | 58 | 53 | 0.0 | 2.0 | 0.00 | 0.05 | 0.00 | 91 | 1012.5 |
| 20260503231536 | 58 | 37 | 0.0 | 1.0 | 0.00 | 0.05 | 0.00 | 90 | 1012.5 |
| 20260503230041 | 59 | 38 | 1.0 | 6.0 | 0.00 | 0.05 | 0.00 | 89 | 1012.4 |
| 20260503224533 | 59 | 325 | 4.0 | 7.0 | 0.00 | 0.06 | 0.00 | 90 | 1012.5 |
| 20260503223041 | 59 | 309 | 3.0 | 7.0 | 0.00 | 0.06 | 0.00 | 90 | 1012.7 |
| 20260503221541 | 59 | 315 | 4.0 | 9.0 | 0.00 | 0.06 | 0.00 | 89 | 1012.5 |
| 20260503220039 | 59 | 336 | 5.0 | 9.0 | 0.00 | 0.06 | 0.00 | 88 | 1012.6 |
| 20260503214540 | 59 | 329 | 3.0 | 7.0 | 0.00 | 0.08 | 0.06 | 89 | 1012.4 |
| 20260503213042 | 59 | 329 | 4.0 | 7.0 | 0.00 | 0.08 | 0.06 | 88 | 1012.5 |
| 20260503211541 | 59 | 321 | 5.0 | 7.0 | 0.00 | 0.08 | 0.06 | 89 | 1012.6 |
| 20260503210039 | 59 | 315 | 5.0 | 8.0 | 0.00 | 0.08 | 0.06 | 88 | 1012.8 |
| 20260503204541 | 60 | 310 | 4.0 | 9.0 | 0.00 | 0.08 | 0.06 | 88 | 1012.7 |
| 20260503203041 | 60 | 323 | 5.0 | 8.0 | 0.00 | 0.08 | 0.06 | 88 | 1012.5 |
| 20260503201538 | 60 | 288 | 2.0 | 7.0 | 0.00 | 0.08 | 0.06 | 88 | 1012.4 |
| 20260503200036 | 60 | 301 | 4.0 | 9.0 | 0.00 | 0.08 | 0.06 | 87 | 1012.0 |
| 20260503194543 | 60 | 313 | 3.0 | 7.0 | 0.00 | 0.08 | 0.06 | 87 | 1011.9 |
| 20260503193056 | 60 | 313 | 4.0 | 7.0 | 0.00 | 0.08 | 0.06 | 86 | 1011.8 |
| 20260503191603 | 61 | 295 | 3.0 | 7.0 | 0.00 | 0.08 | 0.06 | 85 | 1011.7 |
| 20260503190039 | 61 | 321 | 1.0 | 6.0 | 0.00 | 0.08 | 0.06 | 84 | 1011.7 |